Montrose, CO

8:55 AM MDT on October 19, 2017 (GMT -0600)
Montrose Regional

Weather History for KMTJ - January, 2012

Change the Weather History Date:

Monday, January 16, 2012

  Actual Average Record
Temperature  
Mean Temperature 33 °F 26 °F  
Max Temperature 45 °F 38 °F 48 °F (2000)
Min Temperature 20 °F 14 °F -7 °F (2007)
Degree Days  
Heating Degree Days 32 39  
Month to date heating degree days 628 634  
Since 1 July heating degree days 3203 3242  
Cooling Degree Days 0 0  
Month to date cooling degree days 0  
Year to date cooling degree days 0  
Moisture  
Dew Point 25 °F    
Average Humidity 58    
Maximum Humidity 76    
Minimum Humidity 39    
Precipitation  
Precipitation T in 0.03 in 0.15 in (2006)
Month to date precipitation T 0.36  
Year to date precipitation T 0.36  
Sea Level Pressure  
Sea Level Pressure 29.79 in    
Wind  
Wind Speed 10 mph (West)    
Max Wind Speed 32 mph    
Max Gust Speed 39 mph    
Visibility 8 miles    
Events Rain , Snow    
T = Trace of Precipitation, MM = Missing Value Source: NWS Daily Summary

Daily Weather History Graph

Daily Weather History Graph

Search for Another Location

Airport or City:

Trip Planner

Search our weather history database for the weather conditions in past years. The results will help you decide how hot, cold, wet, or windy it might be!

Date:

Astronomy

Jan. 16, 2012 Rise Set
Actual Time 7:27 AM MST 5:15 PM MST
Civil Twilight 6:58 AM MST 5:44 PM MST
Nautical Twilight 6:25 AM MST 6:16 PM MST
Astronomical Twilight 5:54 AM MST 6:48 PM MST
Moon 12:41 AM MST (1/16) 11:30 AM MST (1/16)
Length of Visible Light 10h 45m
Length of Day
9h 47m
Last Quarter, 45% of the Moon is Illuminated
Jan 16
Last Quarter
Jan 23
New
Jan 30
First Quarter
Feb 7
Full
Feb 14
Last Quarter

Hourly Weather History & Observations

Time (MST) Temp. Windchill Dew Point Humidity Pressure Visibility Wind Dir Wind Speed Gust Speed Precip Events Conditions
12:53 AM 43.0 °F 40.3 °F 19.9 °F 40% 29.78 in 10.0 mi Variable 4.6 mph - N/A   Partly Cloudy
1:53 AM 39.9 °F 33.9 °F 25.0 °F 55% 29.79 in 10.0 mi South 9.2 mph 34.5 mph N/A   Mostly Cloudy
2:53 AM 37.0 °F - 26.1 °F 65% 29.78 in 10.0 mi Calm Calm - N/A   Mostly Cloudy
3:53 AM 42.1 °F 37.1 °F 25.0 °F 51% 29.74 in 10.0 mi WSW 8.1 mph - N/A   Overcast
4:53 AM 41.0 °F 33.1 °F 26.1 °F 55% 29.69 in 10.0 mi WSW 15.0 mph 34.5 mph N/A   Partly Cloudy
5:53 AM 39.9 °F 35.8 °F 27.0 °F 60% 29.68 in 10.0 mi Variable 5.8 mph 24.2 mph N/A   Partly Cloudy
6:53 AM 37.9 °F 33.5 °F 28.9 °F 70% 29.71 in 10.0 mi SSW 5.8 mph - 0.00 in Rain Light Rain
7:53 AM 37.9 °F 33.5 °F 28.9 °F 70% 29.71 in 10.0 mi SW 5.8 mph - 0.00 in Rain Light Rain
8:53 AM 36.0 °F 30.3 °F 30.9 °F 82% 29.70 in 10.0 mi SE 6.9 mph - 0.00 in   Overcast
9:53 AM 39.9 °F 35.8 °F 28.0 °F 63% 29.69 in 10.0 mi ENE 5.8 mph - N/A   Scattered Clouds
10:53 AM 42.1 °F - 27.0 °F 55% 29.69 in 10.0 mi Calm Calm - N/A   Mostly Cloudy
11:53 AM 37.9 °F 32.7 °F 30.0 °F 73% 29.67 in 10.0 mi SSW 6.9 mph - N/A   Mostly Cloudy
12:53 PM 39.0 °F - 30.0 °F 70% 29.65 in 10.0 mi Calm Calm - 0.00 in   Mostly Cloudy
1:17 PM 42.8 °F 33.8 °F 24.8 °F 49% 29.70 in 10.0 mi WSW 21.9 mph 27.6 mph N/A   Overcast
1:53 PM 37.0 °F 27.4 °F 30.0 °F 76% 29.65 in 10.0 mi WNW 17.3 mph 21.9 mph N/A   Mostly Cloudy
2:28 PM 35.6 °F 26.2 °F 30.2 °F 81% 29.72 in 3.0 mi WNW 15.0 mph - 0.00 in Snow Light Snow
2:53 PM 37.0 °F 30.4 °F 30.0 °F 76% 29.68 in 10.0 mi WNW 9.2 mph - 0.00 in   Mostly Cloudy
3:53 PM 39.0 °F 31.0 °F 23.0 °F 53% 29.67 in 9.0 mi WSW 13.8 mph 24.2 mph 0.00 in   Mostly Cloudy
4:33 PM 32.0 °F 19.2 °F 26.6 °F 80% 29.82 in 10.0 mi NW 23.0 mph 38.0 mph N/A   Overcast
4:53 PM 32.0 °F 19.8 °F 28.0 °F 85% 29.78 in 6.0 mi WNW 20.7 mph 28.8 mph 0.00 in Snow Light Snow
5:00 PM 32.0 °F 19.8 °F 28.4 °F 87% 29.84 in 1.8 mi WNW 20.7 mph 29.9 mph 0.00 in Snow Light Snow
5:02 PM 32.0 °F 18.4 °F 28.4 °F 87% 29.84 in 1.5 mi WNW 26.5 mph 33.4 mph 0.00 in Snow Light Snow
5:05 PM 32.0 °F 17.2 °F 28.4 °F 87% 29.84 in 0.8 mi WNW 32.2 mph 38.0 mph 0.00 in Snow Light Snow
5:14 PM 32.0 °F 18.9 °F 26.6 °F 80% 29.84 in 1.2 mi West 24.2 mph 36.8 mph 0.00 in Snow Light Snow
5:18 PM 32.0 °F 19.2 °F 26.6 °F 80% 29.84 in 3.0 mi WSW 23.0 mph 33.4 mph 0.00 in Snow Light Snow
5:29 PM 32.0 °F 20.5 °F 26.6 °F 80% 29.84 in 7.0 mi WSW 18.4 mph 36.8 mph 0.00 in Snow Light Snow
5:53 PM 33.1 °F 23.9 °F 26.1 °F 75% 29.82 in 10.0 mi West 12.7 mph 23.0 mph 0.00 in   Overcast
7:53 PM 30.0 °F 18.3 °F 15.1 °F 54% 29.97 in 10.0 mi NW 17.3 mph - N/A   Overcast
8:53 PM 27.0 °F 14.3 °F 10.9 °F 51% 30.04 in 10.0 mi NW 17.3 mph - N/A   Overcast
9:53 PM 23.0 °F 9.2 °F 7.0 °F 50% 30.10 in 10.0 mi NW 17.3 mph 27.6 mph N/A   Mostly Cloudy
10:53 PM 21.9 °F 14.5 °F 5.0 °F 48% 30.14 in 10.0 mi NNE 5.8 mph - N/A   Overcast